QPF
0.03 0.04 0.04 0.04 0.05 0.05 0.04 0.04 0.07 0.07 0.06 0.05 0.04 0.03 0.02 0.02 0.02 0.02 0.03 0.04 0.04 0.05 0.05 0.06 0.07 0.08 0.07 0.05 0.05 0.05 0.05 0.05 0.03 0.02 0.01 0.02 0.02 0.02 0.02 0.03 0.02 0.02 0.01
0.05 0.07 0.08 0.05 0.04 0.04 0.04 0.04 0.05 0.04 0.03 0.02 0.02 0.02 0.02 0.01 0.01 0.02 0.03 0.04 0.05 0.05 0.06 0.06 0.06 0.07 0.07 0.06 0.05 0.04 0.04 0.04 0.04 0.03 0.03 0.02 0.02 0.01 0.02 0.03 0.03 0.03 0.02
0.04 0.06 0.07 0.05 0.03 0.04 0.05 0.04 0.04 0.03 0.02 0.01 0.01 0.01 0.02 0.02 0.03 0.03 0.03 0.05 0.05 0.05 0.05 0.06 0.06 0.05 0.06 0.04 0.04 0.03 0.03 0.03 0.03 0.02 0.02 0.02 0.02 0.02 0.02 0.02 0.02 0.03 0.02
0.05 0.04 0.04 0.05 0.04 0.04 0.04 0.03 0.04 0.03 0.02 0.01 0.01 0.01 0.02 0.03 0.03 0.03 0.03 0.04 0.05 0.04 0.04 0.04 0.04 0.04 0.04 0.04 0.03 0.02 0.03 0.02 0.03 0.03 0.02 0.02 0.02 0.02 0.02 0.02 0.02 0.02 0.03
0.05 0.06 0.08 0.08 0.06 0.04 0.02 0.02 0.02 0.03 0.03 0.02 0.02 0.01 0.01 0.02 0.02 0.02 0.03 0.04 0.04 0.04 0.03 0.03 0.03 0.03 0.03 0.02 0.02 0.02 0.02 0.02 0.02 0.02 0.02 0.03 0.03 0.02 0.02 0.02 0.02 0.02 0.03
0.04 0.05 0.08 0.09 0.07 0.04 0.02 0.01 0.01 0.02 0.03 0.03 0.03 0.02 0.01 0.01 0.02 0.03 0.03 0.04 0.04 0.04 0.04 0.04 0.03 0.03 0.03 0.03 0.02 0.02 0.02 0.02 0.02 0.02 0.03 0.04 0.03 0.02 0.02 0.02 0.02 0.03 0.03
0.08 0.07 0.05 0.05 0.05 0.04 0.03 0.02 0.01 0.02 0.03 0.03 0.03 0.03 0.02 0.01 0.02 0.02 0.03 0.03 0.03 0.03 0.03 0.04 0.04 0.04 0.03 0.03 0.02 0.02 0.02 0.02 0.01 0.02 0.03 0.03 0.03 0.02 0.02 0.02 0.02 0.02 0.03
0.07 0.07 0.06 0.05 0.05 0.04 0.03 0.02 0.02 0.02 0.02 0.01 0.01 0.01 0.01 0.01 0.02 0.02 0.02 0.02 0.02 0.02 0.02 0.03 0.04 0.04 0.04 0.03 0.03 0.02 0.01 0.01 0.01 0.01 0.01 0.01 0.02 0.02 0.03 0.03 0.02 0.02 0.02
0.04 0.06 0.05 0.05 0.05 0.04 0.02 0.02 0.02 0.03 0.02 0.01 0.01 0.01 0.01 0.02 0.02 0.02 0.02 0.01 0.01 0.02 0.02 0.02 0.03 0.03 0.03 0.03 0.02 0.02 0.01 0.01 0.02 0.02 0.02 0.02 0.02 0.02 0.03 0.04 0.03 0.02 0.02
0.03 0.05 0.04 0.04 0.04 0.03 0.02 0.02 0.02 0.03 0.02 0.01 0.01 0.01 0.02 0.02 0.01 0.01 0.01 0.02 0.02 0.02 0.02 0.02 0.02 0.02 0.02 0.02 0.01 0.01 0.01 0.01 0.03 0.03 0.02 0.01 0.02 0.02 0.03 0.04 0.04 0.03 0.02
0.02 0.02 0.03 0.03 0.03 0.03 0.03 0.03 0.03 0.03 0.03 0.02 0.02 0.02 0.03 0.02 0.01 0.01 0.01 0.01 0.01 0.01 0.01 0.01 0.01 0.01 0.02 0.02 0.02 0.02 0.03 0.04 0.04 0.03 0.02 0.02 0.01 0.01 0.03 0.04 0.04 0.04 0.03
0.02 0.02 0.02 0.03 0.03 0.03 0.03 0.03 0.03 0.03 0.02 0.02 0.02 0.02 0.02 0.02 0.01 0.02 0.02 0.01 0.01 0.01 0.01 0.01 0.01 0.02 0.02 0.03 0.03 0.03 0.04 0.04 0.03 0.04 0.03 0.01 0.01 0.01 0.01 0.03 0.03 0.03 0.03
0.03 0.02 0.02 0.03 0.04 0.04 0.03 0.03 0.03 0.03 0.02 0.02 0.02 0.02 0.02 0.02 0.02 0.03 0.03 0.02 0.02 0.02 0.02 0.02 0.02 0.02 0.02 0.02 0.02 0.03 0.03 0.02 0.02 0.02 0.01 0.01 0.01 0.01 0.01 0.01 0.02 0.03 0.03
0.01 0.01 0.02 0.03 0.04 0.04 0.04 0.03 0.03 0.03 0.02 0.02 0.02 0.03 0.03 0.02 0.02 0.02 0.03 0.02 0.03 0.03 0.03 0.02 0.02 0.02 0.02 0.02 0.02 0.02 0.02 0.01 0.00 0.01 0.01 0.01 0.01 0.01 0.01 0.01 0.01 0.03 0.03
0.00 0.01 0.01 0.02 0.03 0.04 0.04 0.03 0.03 0.03 0.03 0.03 0.03 0.03 0.04 0.03 0.02 0.02 0.02 0.02 0.02 0.02 0.02 0.02 0.01 0.01 0.01 0.01 0.01 0.01 0.01 0.01 0.01 0.01 0.01 0.01 0.01 0.01 0.01 0.01 0.02 0.02 0.03
0.00 0.01 0.01 0.01 0.02 0.03 0.03 0.03 0.04 0.03 0.03 0.04 0.04 0.04 0.04 0.04 0.03 0.02 0.02 0.02 0.02 0.02 0.01 0.01 0.01 0.01 0.01 0.01 0.01 0.01 0.01 0.01 0.01 0.01 0.01 0.01 0.01 0.01 0.02 0.02 0.03 0.03 0.03
0.02 0.02 0.02 0.02 0.02 0.03 0.03 0.03 0.04 0.04 0.04 0.04 0.05 0.05 0.05 0.04 0.04 0.03 0.02 0.02 0.02 0.01 0.01 0.01 0.01 0.01 0.01 0.01 0.01 0.01 0.01 0.01 0.01 0.01 0.01 0.02 0.02 0.02 0.02 0.03 0.03 0.03 0.02
0.02 0.02 0.02 0.03 0.02 0.02 0.02 0.03 0.03 0.04 0.06 0.06 0.05 0.05 0.04 0.03 0.03 0.04 0.03 0.02 0.02 0.02 0.01 0.01 0.01 0.00 0.00 0.00 0.00 0.00 0.00 0.01 0.01 0.01 0.01 0.02 0.02 0.02 0.03 0.03 0.03 0.03 0.03
0.02 0.02 0.02 0.02 0.02 0.02 0.03 0.03 0.04 0.05 0.08 0.10 0.07 0.06 0.04 0.03 0.02 0.03 0.02 0.01 0.01 0.01 0.01 0.00 0.00 0.00 0.00 0.00 0.00 0.00 0.00 0.01 0.01 0.01 0.01 0.02 0.02 0.02 0.03 0.03 0.03 0.03 0.03
0.02 0.02 0.02 0.02 0.02 0.02 0.03 0.04 0.05 0.07 0.09 0.09 0.07 0.05 0.04 0.03 0.02 0.02 0.01 0.01 0.01 0.01 0.00 0.00 0.00 0.00 0.00 0.00 0.00 0.00 0.01 0.01 0.01 0.01 0.01 0.01 0.02 0.03 0.03 0.03 0.02 0.03 0.03
0.02 0.03 0.04 0.03 0.03 0.03 0.04 0.05 0.07 0.11 0.08 0.06 0.04 0.04 0.04 0.03 0.02 0.03 0.02 0.01 0.01 0.01 0.01 0.01 0.01 0.01 0.01 0.01 0.01 0.01 0.01 0.01 0.02 0.02 0.02 0.02 0.02 0.03 0.03 0.03 0.03 0.03 0.03
0.02 0.02 0.04 0.05 0.05 0.05 0.06 0.08 0.10 0.11 0.07 0.04 0.03 0.03 0.04 0.03 0.02 0.02 0.01 0.01 0.01 0.01 0.01 0.01 0.01 0.01 0.01 0.01 0.01 0.01 0.02 0.01 0.01 0.01 0.01 0.01 0.01 0.01 0.02 0.02 0.02 0.02 0.03
0.02 0.03 0.04 0.05 0.06 0.06 0.07 0.08 0.09 0.09 0.06 0.05 0.03 0.03 0.03 0.03 0.03 0.03 0.03 0.02 0.02 0.02 0.01 0.02 0.02 0.01 0.01 0.01 0.00 0.01 0.01 0.01 0.01 0.01 0.01 0.01 0.01 0.01 0.01 0.01 0.01 0.02 0.02
0.03 0.03 0.04 0.04 0.06 0.07 0.07 0.07 0.08 0.08 0.06 0.06 0.06 0.06 0.05 0.04 0.04 0.04 0.04 0.05 0.05 0.04 0.04 0.05 0.04 0.02 0.01 0.01 0.01 0.00 0.01 0.01 0.01 0.02 0.02 0.02 0.02 0.01 0.01 0.01 0.01 0.01 0.01
0.02 0.02 0.03 0.03 0.04 0.05 0.05 0.06 0.06 0.06 0.06 0.05 0.07 0.08 0.08 0.07 0.05 0.04 0.04 0.03 0.03 0.04 0.05 0.06 0.06 0.04 0.02 0.02 0.01 0.01 0.01 0.00 0.01 0.01 0.02 0.02 0.01 0.01 0.01 0.02 0.02 0.01 0.02
0.01 0.01 0.02 0.03 0.03 0.03 0.04 0.05 0.05 0.05 0.05 0.05 0.04 0.05 0.07 0.06 0.05 0.04 0.04 0.03 0.03 0.04 0.04 0.04 0.04 0.04 0.03 0.02 0.01 0.01 0.01 0.01 0.01 0.00 0.01 0.01 0.01 0.01 0.01 0.02 0.02 0.01 0.01
MSLP
1015.36 1015.89 1016.41 1016.89 1017.29 1017.61 1017.86 1018.06 1018.24 1018.43 1018.65 1018.89 1019.16 1019.43 1019.70 1019.94 1020.15 1020.33 1020.49 1020.64 1020.80 1020.97 1021.15 1021.33 1021.49 1021.62 1021.71 1021.74 1021.73 1021.67 1021.57 1021.43 1021.26 1021.06 1020.80 1020.49 1020.11 1019.67 1019.17 1018.63 1018.07 1017.53 1017.03
1015.66 1016.20 1016.71 1017.18 1017.58 1017.89 1018.15 1018.35 1018.54 1018.74 1018.95 1019.19 1019.45 1019.72 1019.98 1020.23 1020.45 1020.64 1020.82 1020.98 1021.13 1021.28 1021.41 1021.54 1021.64 1021.71 1021.75 1021.75 1021.73 1021.68 1021.60 1021.51 1021.40 1021.24 1021.02 1020.74 1020.36 1019.91 1019.38 1018.79 1018.18 1017.58 1017.01
1015.89 1016.46 1016.99 1017.47 1017.88 1018.22 1018.49 1018.72 1018.92 1019.13 1019.35 1019.58 1019.83 1020.08 1020.33 1020.56 1020.77 1020.96 1021.13 1021.28 1021.41 1021.52 1021.61 1021.68 1021.72 1021.74 1021.73 1021.70 1021.66 1021.62 1021.58 1021.53 1021.45 1021.34 1021.16 1020.89 1020.53 1020.06 1019.51 1018.89 1018.24 1017.59 1016.97
1016.06 1016.67 1017.25 1017.76 1018.20 1018.57 1018.88 1019.14 1019.38 1019.61 1019.83 1020.06 1020.30 1020.53 1020.75 1020.95 1021.14 1021.30 1021.44 1021.56 1021.66 1021.73 1021.78 1021.79 1021.78 1021.75 1021.69 1021.64 1021.58 1021.54 1021.51 1021.47 1021.42 1021.33 1021.17 1020.92 1020.56 1020.09 1019.52 1018.88 1018.20 1017.51 1016.86
1016.17 1016.83 1017.45 1018.01 1018.50 1018.91 1019.27 1019.59 1019.87 1020.12 1020.37 1020.60 1020.82 1021.02 1021.21 1021.37 1021.52 1021.64 1021.75 1021.83 1021.89 1021.93 1021.93 1021.91 1021.85 1021.77 1021.68 1021.59 1021.51 1021.45 1021.40 1021.36 1021.31 1021.21 1021.05 1020.79 1020.42 1019.95 1019.37 1018.73 1018.04 1017.34 1016.67
1016.23 1016.93 1017.59 1018.18 1018.71 1019.18 1019.59 1019.96 1020.29 1020.59 1020.86 1021.10 1021.31 1021.49 1021.64 1021.76 1021.86 1021.94 1022.00 1022.05 1022.08 1022.09 1022.07 1022.02 1021.93 1021.83 1021.70 1021.58 1021.46 1021.36 1021.28 1021.20 1021.11 1020.98 1020.79 1020.51 1020.14 1019.65 1019.08 1018.44 1017.76 1017.08 1016.41
1016.23 1016.96 1017.63 1018.24 1018.80 1019.31 1019.77 1020.19 1020.58 1020.92 1021.22 1021.48 1021.68 1021.84 1021.96 1022.04 1022.10 1022.15 1022.18 1022.20 1022.21 1022.21 1022.17 1022.11 1022.01 1021.89 1021.74 1021.58 1021.42 1021.27 1021.13 1021.00 1020.85 1020.67 1020.43 1020.12 1019.72 1019.24 1018.68 1018.06 1017.42 1016.77 1016.14
1016.19 1016.90 1017.56 1018.17 1018.74 1019.27 1019.77 1020.24 1020.67 1021.05 1021.39 1021.66 1021.87 1022.02 1022.11 1022.17 1022.20 1022.21 1022.22 1022.23 1022.24 1022.24 1022.22 1022.16 1022.07 1021.94 1021.77 1021.58 1021.38 1021.18 1020.97 1020.76 1020.54 1020.30 1020.01 1019.66 1019.25 1018.77 1018.24 1017.66 1017.06 1016.46 1015.88
1016.11 1016.78 1017.41 1017.99 1018.54 1019.07 1019.59 1020.08 1020.55 1020.97 1021.33 1021.63 1021.85 1022.00 1022.08 1022.12 1022.14 1022.14 1022.14 1022.15 1022.17 1022.19 1022.18 1022.15 1022.07 1021.94 1021.77 1021.56 1021.32 1021.06 1020.79 1020.51 1020.22 1019.91 1019.58 1019.20 1018.78 1018.32 1017.81 1017.29 1016.75 1016.22 1015.70
1016.00 1016.63 1017.20 1017.73 1018.25 1018.77 1019.28 1019.78 1020.27 1020.72 1021.10 1021.42 1021.65 1021.81 1021.90 1021.93 1021.95 1021.95 1021.96 1021.98 1022.02 1022.06 1022.08 1022.07 1022.01 1021.89 1021.72 1021.50 1021.23 1020.93 1020.60 1020.27 1019.92 1019.57 1019.19 1018.80 1018.38 1017.94 1017.48 1017.00 1016.53 1016.07 1015.61
1015.89 1016.46 1016.97 1017.46 1017.93 1018.42 1018.92 1019.42 1019.91 1020.37 1020.77 1021.10 1021.35 1021.52 1021.62 1021.66 1021.68 1021.70 1021.72 1021.76 1021.82 1021.88 1021.93 1021.94 1021.90 1021.80 1021.63 1021.39 1021.11 1020.78 1020.42 1020.05 1019.67 1019.29 1018.90 1018.50 1018.10 1017.68 1017.26 1016.84 1016.42 1016.02 1015.62
1015.76 1016.29 1016.76 1017.20 1017.64 1018.10 1018.57 1019.06 1019.55 1020.01 1020.42 1020.76 1021.02 1021.20 1021.32 1021.38 1021.42 1021.45 1021.49 1021.55 1021.63 1021.70 1021.76 1021.79 1021.76 1021.67 1021.50 1021.27 1020.97 1020.64 1020.27 1019.89 1019.50 1019.11 1018.73 1018.34 1017.95 1017.57 1017.18 1016.80 1016.43 1016.06 1015.71
1015.62 1016.13 1016.58 1016.99 1017.41 1017.84 1018.29 1018.77 1019.24 1019.69 1020.10 1020.45 1020.72 1020.92 1021.05 1021.14 1021.20 1021.25 1021.31 1021.39 1021.47 1021.56 1021.62 1021.65 1021.62 1021.52 1021.36 1021.13 1020.84 1020.51 1020.15 1019.78 1019.41 1019.04 1018.68 1018.31 1017.95 1017.59 1017.23 1016.88 1016.53 1016.18 1015.84
1015.43 1015.96 1016.41 1016.82 1017.23 1017.65 1018.09 1018.54 1019.00 1019.44 1019.84 1020.18 1020.46 1020.68 1020.83 1020.95 1021.04 1021.11 1021.20 1021.28 1021.37 1021.45 1021.51 1021.52 1021.49 1021.38 1021.21 1020.99 1020.71 1020.40 1020.07 1019.73 1019.40 1019.07 1018.74 1018.41 1018.08 1017.74 1017.39 1017.04 1016.69 1016.34 1015.99
1015.18 1015.74 1016.22 1016.65 1017.07 1017.50 1017.93 1018.37 1018.80 1019.22 1019.61 1019.95 1020.24 1020.47 1020.65 1020.79 1020.91 1021.02 1021.12 1021.22 1021.31 1021.38 1021.42 1021.41 1021.35 1021.24 1021.06 1020.84 1020.58 1020.30 1020.01 1019.72 1019.44 1019.16 1018.88 1018.59 1018.28 1017.96 1017.62 1017.26 1016.88 1016.51 1016.13
1014.84 1015.44 1015.97 1016.44 1016.89 1017.32 1017.75 1018.18 1018.59 1018.99 1019.36 1019.70 1019.99 1020.23 1020.44 1020.61 1020.77 1020.91 1021.03 1021.14 1021.23 1021.29 1021.31 1021.28 1021.20 1021.07 1020.89 1020.68 1020.44 1020.20 1019.96 1019.73 1019.50 1019.28 1019.05 1018.80 1018.52 1018.21 1017.86 1017.49 1017.09 1016.67 1016.26
1014.42 1015.06 1015.63 1016.15 1016.62 1017.07 1017.50 1017.92 1018.31 1018.69 1019.05 1019.37 1019.66 1019.92 1020.15 1020.36 1020.55 1020.72 1020.87 1021.00 1021.09 1021.14 1021.15 1021.10 1021.00 1020.85 1020.67 1020.47 1020.27 1020.06 1019.88 1019.71 1019.54 1019.38 1019.20 1019.00 1018.75 1018.45 1018.10 1017.70 1017.27 1016.82 1016.37
1013.92 1014.60 1015.21 1015.76 1016.26 1016.72 1017.15 1017.55 1017.93 1018.29 1018.62 1018.93 1019.22 1019.49 1019.75 1019.99 1020.22 1020.42 1020.60 1020.75 1020.85 1020.90 1020.89 1020.83 1020.72 1020.57 1020.39 1020.21 1020.04 1019.88 1019.75 1019.63 1019.53 1019.43 1019.31 1019.14 1018.92 1018.63 1018.28 1017.87 1017.42 1016.94 1016.46
1013.39 1014.09 1014.72 1015.30 1015.81 1016.28 1016.70 1017.09 1017.45 1017.78 1018.09 1018.39 1018.67 1018.95 1019.23 1019.50 1019.76 1019.99 1020.20 1020.36 1020.47 1020.52 1020.52 1020.46 1020.34 1020.20 1020.04 1019.89 1019.75 1019.64 1019.56 1019.50 1019.46 1019.41 1019.34 1019.21 1019.02 1018.75 1018.40 1017.99 1017.53 1017.04 1016.54
1012.87 1013.57 1014.21 1014.79 1015.31 1015.78 1016.19 1016.56 1016.89 1017.20 1017.49 1017.77 1018.05 1018.33 1018.62 1018.90 1019.18 1019.44 1019.67 1019.85 1019.97 1020.04 1020.04 1019.98 1019.89 1019.76 1019.63 1019.51 1019.41 1019.35 1019.32 1019.31 1019.32 1019.32 1019.29 1019.20 1019.03 1018.79 1018.46 1018.05 1017.59 1017.10 1016.60
1012.40 1013.07 1013.70 1014.28 1014.80 1015.25 1015.65 1016.00 1016.31 1016.59 1016.86 1017.12 1017.39 1017.67 1017.95 1018.25 1018.53 1018.80 1019.04 1019.24 1019.37 1019.45 1019.47 1019.43 1019.36 1019.27 1019.17 1019.09 1019.04 1019.03 1019.04 1019.09 1019.14 1019.17 1019.17 1019.11 1018.97 1018.75 1018.44 1018.05 1017.61 1017.12 1016.63
1011.98 1012.63 1013.24 1013.80 1014.30 1014.74 1015.12 1015.45 1015.73 1015.99 1016.24 1016.48 1016.74 1017.00 1017.28 1017.57 1017.85 1018.12 1018.36 1018.56 1018.71 1018.80 1018.84 1018.83 1018.80 1018.74 1018.69 1018.66 1018.66 1018.69 1018.76 1018.84 1018.93 1018.99 1019.02 1018.97 1018.86 1018.65 1018.37 1018.00 1017.58 1017.12 1016.64
1011.61 1012.22 1012.80 1013.34 1013.82 1014.24 1014.60 1014.91 1015.18 1015.42 1015.65 1015.88 1016.11 1016.36 1016.62 1016.89 1017.16 1017.42 1017.65 1017.85 1018.00 1018.11 1018.17 1018.20 1018.20 1018.20 1018.21 1018.23 1018.29 1018.37 1018.48 1018.59 1018.71 1018.79 1018.83 1018.80 1018.70 1018.51 1018.25 1017.90 1017.51 1017.07 1016.62
1011.25 1011.83 1012.38 1012.89 1013.34 1013.74 1014.08 1014.38 1014.63 1014.86 1015.07 1015.28 1015.50 1015.73 1015.97 1016.22 1016.47 1016.70 1016.92 1017.11 1017.26 1017.38 1017.47 1017.54 1017.59 1017.64 1017.71 1017.80 1017.91 1018.04 1018.19 1018.34 1018.48 1018.58 1018.63 1018.61 1018.51 1018.33 1018.08 1017.76 1017.39 1016.98 1016.55
1010.87 1011.42 1011.93 1012.40 1012.83 1013.20 1013.52 1013.80 1014.05 1014.26 1014.47 1014.67 1014.87 1015.08 1015.30 1015.52 1015.74 1015.96 1016.15 1016.33 1016.48 1016.61 1016.73 1016.83 1016.94 1017.05 1017.18 1017.33 1017.50 1017.69 1017.88 1018.06 1018.22 1018.33 1018.38 1018.37 1018.27 1018.10 1017.86 1017.56 1017.21 1016.83 1016.42
1010.44 1010.94 1011.42 1011.85 1012.24 1012.59 1012.89 1013.15 1013.39 1013.60 1013.80 1013.99 1014.18 1014.38 1014.58 1014.77 1014.97 1015.16 1015.33 1015.50 1015.65 1015.79 1015.93 1016.07 1016.22 1016.39 1016.59 1016.80 1017.03 1017.27 1017.50 1017.71 1017.89 1018.02 1018.07 1018.06 1017.97 1017.81 1017.57 1017.29 1016.96 1016.60 1016.22
Thickness
5697 5695 5693 5691 5690 5688 5686 5685 5683 5682 5681 5680 5678 5677 5676 5675 5674 5672 5670 5669 5667 5665 5663 5662 5661 5660 5657 5655 5654 5652 5650 5648 5644 5645 5645 5646 5645 5644 5644 5643 5642 5641 5640
5693 5691 5689 5688 5686 5684 5683 5681 5680 5678 5677 5676 5674 5673 5671 5671 5670 5668 5666 5665 5663 5661 5660 5658 5656 5655 5652 5650 5649 5647 5646 5644 5641 5639 5639 5640 5640 5640 5638 5637 5637 5636 5634
5690 5687 5685 5683 5682 5680 5679 5677 5676 5674 5672 5671 5670 5668 5667 5667 5666 5665 5663 5661 5660 5658 5656 5654 5652 5650 5647 5645 5643 5642 5641 5640 5638 5635 5633 5633 5633 5634 5632 5631 5631 5630 5630
5686 5683 5681 5679 5678 5676 5675 5673 5671 5669 5667 5666 5665 5664 5664 5663 5662 5661 5659 5657 5656 5654 5653 5651 5649 5647 5644 5642 5640 5638 5637 5634 5632 5629 5627 5626 5626 5627 5625 5623 5622 5622 5622
5682 5679 5678 5676 5674 5672 5670 5668 5666 5664 5663 5661 5660 5660 5659 5659 5658 5657 5655 5654 5651 5649 5648 5647 5646 5645 5643 5640 5638 5635 5633 5630 5626 5623 5621 5619 5619 5619 5618 5617 5615 5615 5616
5677 5675 5674 5671 5669 5667 5664 5662 5660 5659 5658 5657 5656 5655 5655 5656 5655 5653 5652 5649 5648 5646 5644 5643 5642 5641 5640 5638 5636 5634 5631 5627 5622 5619 5617 5615 5615 5615 5613 5612 5609 5607 5607
5671 5669 5667 5665 5663 5662 5661 5657 5655 5654 5653 5652 5651 5651 5650 5651 5651 5650 5648 5646 5644 5642 5640 5638 5638 5638 5635 5633 5631 5629 5627 5625 5623 5619 5615 5613 5612 5612 5610 5608 5605 5603 5602
5665 5662 5661 5659 5657 5656 5655 5652 5651 5649 5648 5647 5647 5647 5646 5647 5646 5646 5644 5642 5640 5638 5637 5636 5634 5633 5632 5629 5626 5623 5622 5620 5619 5617 5615 5613 5612 5610 5608 5606 5603 5601 5600
5658 5657 5656 5654 5652 5650 5649 5647 5646 5644 5643 5643 5643 5643 5642 5643 5643 5642 5640 5637 5635 5634 5634 5633 5631 5629 5628 5625 5621 5618 5617 5616 5617 5615 5614 5611 5609 5607 5605 5601 5597 5594 5593
5653 5652 5651 5649 5647 5645 5644 5642 5641 5640 5639 5640 5639 5639 5639 5638 5639 5638 5636 5633 5630 5629 5628 5628 5627 5625 5623 5621 5617 5614 5612 5612 5611 5610 5608 5607 5605 5604 5602 5599 5595 5591 5588
5649 5648 5646 5644 5642 5641 5640 5638 5637 5635 5634 5634 5634 5635 5635 5635 5635 5634 5632 5628 5626 5624 5623 5622 5622 5621 5619 5617 5614 5611 5610 5608 5605 5603 5601 5601 5600 5599 5598 5596 5594 5590 5586
5645 5642 5641 5639 5638 5638 5634 5633 5632 5631 5629 5628 5628 5629 5631 5631 5631 5630 5628 5626 5624 5621 5620 5619 5618 5617 5615 5613 5610 5609 5607 5604 5600 5597 5596 5596 5595 5595 5595 5594 5592 5590 5587
5639 5637 5636 5634 5633 5632 5629 5628 5626 5626 5625 5624 5624 5624 5626 5626 5626 5626 5624 5622 5620 5618 5617 5616 5614 5612 5609 5607 5606 5604 5602 5599 5596 5593 5593 5593 5593 5592 5591 5590 5588 5586 5584
5633 5631 5630 5628 5627 5626 5625 5624 5622 5621 5620 5620 5621 5621 5621 5621 5621 5620 5618 5616 5615 5613 5611 5610 5608 5606 5605 5603 5602 5600 5598 5596 5594 5592 5591 5591 5590 5588 5586 5585 5583 5581 5578
5628 5626 5625 5623 5622 5621 5620 5619 5619 5620 5619 5618 5619 5618 5617 5617 5619 5617 5614 5612 5610 5608 5605 5603 5601 5600 5599 5598 5597 5596 5595 5593 5591 5590 5588 5587 5586 5585 5583 5582 5579 5576 5573
5622 5621 5620 5619 5617 5616 5615 5615 5617 5617 5618 5617 5617 5617 5618 5618 5616 5613 5611 5609 5607 5604 5601 5598 5597 5597 5596 5595 5594 5594 5593 5591 5590 5589 5586 5584 5583 5581 5579 5577 5575 5572 5570
5619 5617 5616 5615 5614 5612 5612 5611 5611 5612 5613 5613 5614 5614 5614 5613 5612 5609 5607 5604 5602 5600 5597 5596 5595 5594 5594 5593 5592 5591 5591 5590 5589 5586 5584 5582 5580 5578 5576 5573 5571 5568 5567
5615 5614 5613 5612 5611 5610 5609 5609 5608 5607 5606 5608 5610 5610 5609 5608 5607 5605 5602 5599 5596 5595 5594 5594 5593 5593 5592 5591 5590 5589 5588 5586 5584 5582 5580 5578 5576 5574 5572 5570 5567 5565 5563
5610 5609 5609 5608 5608 5607 5607 5606 5605 5605 5604 5603 5603 5604 5604 5602 5601 5598 5597 5596 5595 5593 5593 5592 5592 5591 5591 5589 5587 5586 5584 5583 5581 5579 5576 5574 5573 5571 5569 5567 5565 5564 5561
5605 5605 5605 5604 5604 5603 5603 5602 5602 5601 5601 5601 5600 5600 5598 5595 5594 5593 5592 5593 5592 5592 5591 5591 5591 5590 5589 5587 5584 5582 5580 5579 5577 5575 5573 5571 5569 5568 5566 5565 5563 5561 5558
5601 5601 5601 5600 5599 5599 5599 5599 5599 5598 5598 5598 5599 5599 5596 5594 5593 5593 5591 5591 5590 5590 5590 5589 5588 5587 5586 5584 5582 5579 5577 5575 5573 5572 5570 5568 5566 5565 5563 5562 5560 5558 5557
5596 5595 5595 5595 5595 5596 5596 5596 5596 5596 5596 5597 5597 5596 5593 5592 5592 5591 5591 5590 5590 5590 5589 5588 5586 5585 5583 5582 5579 5577 5574 5572 5570 5568 5567 5565 5563 5562 5560 5559 5557 5556 5554
5592 5591 5591 5591 5592 5592 5593 5593 5593 5594 5594 5595 5595 5593 5591 5590 5590 5590 5590 5590 5589 5588 5587 5586 5584 5582 5581 5579 5577 5575 5572 5569 5568 5566 5564 5563 5561 5559 5558 5556 5555 5553 5551
5588 5588 5587 5587 5587 5588 5588 5589 5590 5591 5592 5592 5592 5591 5590 5589 5589 5588 5588 5588 5587 5586 5585 5583 5581 5580 5579 5576 5574 5572 5570 5568 5566 5565 5563 5561 5559 5557 5555 5554 5552 5551 5549
5585 5584 5584 5584 5584 5584 5584 5585 5586 5587 5589 5589 5589 5589 5588 5588 5587 5586 5586 5586 5585 5583 5582 5580 5578 5577 5575 5573 5572 5570 5568 5566 5564 5562 5561 5558 5557 5555 5553 5551 5550 5548 5547
5581 5581 5581 5580 5580 5580 5581 5581 5582 5583 5583 5585 5585 5585 5585 5585 5584 5584 5584 5582 5581 5580 5578 5577 5575 5574 5573 5571 5569 5567 5565 5563 5561 5559 5558 5556 5554 5552 5550 5548 5548 5546 5545